"2009-04-16 00:00:30",803849,1.372,199.8,6.646,0.575,15.03,107.0211,17.25,18.27,16.09,0,110.8,13.23,18.06,161.8
"2009-04-16 00:01:00",803850,1.25,169,30.58,0.527,14.96,107.0199,17.25,18.26,16.13,0,110.8,13.23,18.06,131.0
"2009-04-16 00:01:30",803851,0.594,97.6,36.61,0.305,14.91,107.0199,17.25,18.23,16.14,0,110.8,13.23,18.06,59.6
"2009-04-16 00:02:00",803852,0.143,3.745,79.61,0.185,15.01,107.0199,17.25,18.22,16.17,0,110.8,13.23,18.06,325.7
"2009-04-16 00:02:30",803853,0.313,168.2,58.14,0.277,14.89,107.0188,17.24,18.21,16.18,0,110.8,13.23,18.06,130.2
"2009-04-16 00:03:00",803854,0.326,116.5,45.05,0.231,14.8,107.0078,17.22,18.2,16.13,0,110.8,13.23,18.03,78.5
"2009-04-16 00:03:30",803855,0.544,238.1,15.77,0.267,14.74,106.9881,17.16,18.18,16.16,0,110.8,13.22,17.98,200.1
"2009-04-16 00:04:00",803856,0.77,220.4,9.07,0.15,14.63,106.9859,17.16,18.16,16.18,0,110.8,13.22,17.97,182.4
"2009-04-16 00:04:30",803857,1.061,223.7,11.74,0.167,14.64,106.9856,17.16,18.15,16.2,0,110.8,13.22,17.97,185.7
"2009-04-16 00:05:00",803858,1.214,216.7,15.04,0.349,14.67,106.982,17.15,18.12,16.3,0,110.8,13.22,17.96,178.7
"2009-04-16 00:05:30",803859,1.596,219.5,4.834,0.245,14.72,106.9658,17.11,18.11,16.46,0,110.8,13.22,17.92,181.5
"2009-04-16 00:06:00",803860,1.858,216.3,5.607,0.179,14.66,106.9442,17.05,18.08,16.43,0,110.8,13.22,17.86,178.3
"2009-04-16 00:06:30",803861,1.779,202.6,6.109,0.259,14.76,106.9396,17.04,18.07,16.12,0,110.8,13.22,17.85,164.6
"2009-04-16 00:07:00",803862,2.022,223.5,5.835,0.389,14.72,106.9394,17.04,18.05,16.09,0,110.8,13.22,17.85,185.5
"2009-04-16 00:07:30",803863,2.9,221.6,5.768,0.517,14.8,106.9407,17.04,18.04,15.89,0,110.8,13.22,17.85,183.6
"2009-04-16 00:08:00",803864,3.797,230.9,2.909,0.39,14.95,106.957,17.09,18.04,14.66,0,110.8,13.22,17.90,192.9
"2009-04-16 00:08:30",803865,3.24,235.4,4.374,0.208,14.98,106.9624,17.1,18.05,13.65,0,110.8,13.22,17.91,197.4
"2009-04-16 00:09:00",803866,2.751,231.5,6.024,0.173,14.93,106.9803,17.14,18.07,13.59,0,110.8,13.22,17.96,193.5
"2009-04-16 00:09:30",803867,3.277,223.2,8.39,0.389,15.04,106.9964,17.19,18.1,13.26,0,110.8,13.22,18.00,185.2
"2009-04-16 00:10:00",803868,3.686,211.7,5.396,0.334,15.06,107.0116,17.22,18.14,13.19,0,110.8,13.22,18.04,173.7
"2009-04-16 00:10:30",803869,3.676,215.9,8.1,0.411,15.13,107.0296,17.27,18.16,13.2,0,110.8,13.22,18.08,177.9
"2009-04-16 00:11:00",803870,2.939,216.2,6.558,0.379,15.1,107.0321,17.28,18.19,13.18,0,110.8,13.22,18.09,178.2
"2009-04-16 00:11:30",803871,3.436,198,8.81,0.21,15.1,107.0605,17.35,18.23,13.3,0,110.8,13.22,18.16,160.0
"2009-04-16 00:12:00",803872,4.314,190.3,11.2,0.951,15.13,107.0648,17.36,18.26,13.69,0,110.8,13.22,18.17,152.3
"2009-04-16 00:12:30",803873,3.879,196.7,3.896,0.64,15.17,107.0615,17.35,18.29,13.46,0,110.8,13.22,18.17,158.7
"2009-04-16 00:13:00",803874,2.699,186,11.15,0.361,15.14,107.0688,17.37,18.32,13.42,0,110.8,13.22,18.18,148.0
"2009-04-16 00:13:30",803875,3.115,205.5,5.889,0.419,15.1,107.0927,17.43,18.33,13.43,0,110.8,13.22,18.25,167.5
"2009-04-16 00:14:00",803876,3.257,200.6,5.208,0.35,15.07,107.0959,17.44,18.36,13.37,0,110.8,13.22,18.25,162.6
"2009-04-16 00:14:30",803877,2.059,197.2,14.24,0.655,15.17,107.0953,17.44,18.37,13.36,0,110.8,13.22,18.25,159.2
"2009-04-16 00:15:00",803878,2.304,204.1,21.29,0.883,15.08,107.0706,17.38,18.36,13.37,0,110.8,13.22,18.19,166.1
"2009-04-16 00:15:30",803879,3.356,221.1,12.85,0.459,15.08,107.0636,17.36,18.34,13.35,0,110.8,13.22,18.17,183.1
"2009-04-16 00:16:00",803880,3.777,224.4,8.18,0.459,15.09,107.0591,17.35,18.31,13.51,0,110.8,13.22,18.16,186.4
"2009-04-16 00:16:30",803881,3.764,239.8,6.074,0.317,15.16,107.0592,17.35,18.31,13.69,0,110.8,13.22,18.16,201.8
"2009-04-16 00:17:00",803882,3.681,235.4,4.404,0.335,15.12,107.0422,17.3,18.29,13.59,0,110.8,13.22,18.12,197.4
"2009-04-16 00:17:30",803883,4.144,211.7,10.11,0.483,15.26,107.0441,17.31,18.28,13.54,0,110.8,13.22,18.12,173.7
"2009-04-16 00:18:00",803884,4.021,215.6,16.02,0.416,15.32,107.056,17.34,18.28,13.66,0,110.8,13.22,18.15,177.6
"2009-04-16 00:18:30",803885,3.643,256,7.967,0.216,15.33,107.0594,17.35,18.29,13.68,0,110.8,13.22,18.16,218.0
"2009-04-16 00:19:00",803886,2.859,279.9,10.83,0.705,15.33,107.0594,17.35,18.28,13.93,0,110.8,13.22,18.16,241.9
"2009-04-16 00:19:30",803887,2.241,278.1,17.32,0.53,15.26,107.0606,17.35,18.29,14.04,0,110.8,13.22,18.16,240.1
"2009-04-16 00:20:00",803888,1.743,224.8,24.86,1.016,15.19,107.0597,17.35,18.29,13.86,0,110.8,13.22,18.16,186.8
"2009-04-16 00:20:30",803889,0.844,112.4,32.71,0.347,15.15,107.0593,17.35,18.3,13.89,0,110.8,13.22,18.16,74.4
"2009-04-16 00:21:00",803890,1.722,214.3,27.37,0.465,15.1,107.0814,17.4,18.34,13.81,0,110.8,13.22,18.22,176.3
"2009-04-16 00:21:30",803891,1.351,225.1,18.89,0.351,15.06,107.094,17.44,18.34,13.81,0,110.8,13.22,18.25,187.1
"2009-04-16 00:22:00",803892,2.301,157.3,9.06,0.633,15.08,107.0919,17.43,18.39,13.75,0,110.8,13.21,18.24,119.3
"2009-04-16 00:22:30",803893,1.951,190.1,15.55,0.636,15.06,107.0968,17.44,18.39,13.74,0,110.8,13.21,18.26,152.1
"2009-04-16 00:23:00",803894,2.131,201.4,15.41,1.089,14.98,107.1178,17.5,18.43,13.78,0,110.8,13.21,18.31,163.4
"2009-04-16 00:23:30",803895,1.96,202.8,13.29,0.708,15.09,107.1029,17.46,18.42,13.82,0,110.8,13.21,18.27,164.8
"2009-04-16 00:24:00",803896,1.002,194.6,29.8,0.498,15.07,107.0892,17.42,18.43,13.87,0,110.8,13.21,18.24,156.6
"2009-04-16 00:24:30",803897,1.232,224.6,27.37,0.564,15.02,107.0781,17.4,18.41,13.98,0,110.8,13.21,18.21,186.6
"2009-04-16 00:25:00",803898,2.32,241.6,11.17,0.282,14.95,107.0663,17.37,18.39,14.15,0,110.8,13.21,18.18,203.6
"2009-04-16 00:25:30",803899,2.875,234.2,9.01,0.368,15.06,107.0811,17.4,18.38,13.9,0,110.8,13.22,18.22,196.2
"2009-04-16 00:26:00",803900,4.243,224.2,7.608,0.606,15.12,107.0898,17.43,18.39,13.73,0,110.8,13.22,18.24,186.2
"2009-04-16 00:26:30",803901,4.882,205.1,5.275,0.375,15.21,107.0919,17.43,18.41,13.75,0,110.8,13.22,18.24,167.1
"2009-04-16 00:27:00",803902,5.42,189.3,8.48,0.8,15.35,107.1057,17.47,18.43,13.73,0,110.8,13.22,18.28,151.3
"2009-04-16 00:27:30",803903,8.19,177.7,10.06,0.635,15.45,107.121,17.51,18.44,13.95,0,110.8,13.22,18.32,139.7
"2009-04-16 00:28:00",803904,8.01,179,12.37,0.651,15.51,107.1198,17.5,18.44,14.01,0,110.8,13.22,18.32,141.0
"2009-04-16 00:28:30",803905,7.374,190.3,3.88,0.901,15.57,107.0938,17.44,18.44,14,0,110.8,13.22,18.25,152.3
"2009-04-16 00:29:00",803906,6.902,198,3.587,0.322,15.31,107.0903,17.43,18.41,14.13,0,110.8,13.22,18.24,160.0
"2009-04-16 00:29:30",803907,6.72,187.3,6.275,0.735,15.43,107.0923,17.43,18.39,14.49,0,110.8,13.22,18.24,149.3
"2009-04-16 00:30:00",803908,6.505,178.3,11.25,0.552,15.48,107.0893,17.42,18.38,14.77,0,110.8,13.22,18.24,140.3
"2009-04-16 00:30:30",803909,7.811,171.7,7.015,0.558,15.5,107.0652,17.36,18.38,15.03,0,110.8,13.22,18.18,133.7
"2009-04-16 00:31:00",803910,8.32,181.3,8.92,0.38,15.49,107.0633,17.36,18.36,14.86,0,110.8,13.22,18.17,143.3
"2009-04-16 00:31:30",803911,8.4,182.5,2.589,0.413,15.4,107.063,17.36,18.36,14.67,0,110.8,13.22,18.17,144.5
"2009-04-16 00:32:00",803912,9.22,186.2,2.878,0.301,15.48,107.0654,17.36,18.37,14.49,0,110.8,13.22,18.18,148.2
"2009-04-16 00:32:30",803913,8.8,183.8,4.224,0.287,15.53,107.0648,17.36,18.38,14.5,0,110.8,13.22,18.17,145.8
"2009-04-16 00:33:00",803914,9.2,176.9,3.079,0.584,15.46,107.0648,17.36,18.37,14.46,0,110.8,13.22,18.17,138.9
"2009-04-16 00:33:30",803915,10.35,180,3.52,0.276,15.47,107.0647,17.36,18.36,14.44,0,110.8,13.22,18.17,142.0
"2009-04-16 00:34:00",803916,10.38,183.8,1.438,0.524,15.54,107.0558,17.34,18.34,14.39,0,110.8,13.22,18.15,145.8
"2009-04-16 00:34:30",803917,10.77,185.6,2.121,0.411,15.66,107.046,17.31,18.34,14.34,0,110.8,13.22,18.13,147.6
"2009-04-16 00:35:00",803918,11.93,187.1,2.232,0.578,15.71,107.05,17.32,18.33,14.36,0,110.8,13.22,18.14,149.1
"2009-04-16 00:35:30",803919,12.08,186,1.267,0.394,15.73,107.0534,17.33,18.32,14.26,0,110.8,13.22,18.14,148.0
"2009-04-16 00:36:00",803920,11.59,192.6,1.833,0.343,15.72,107.052,17.33,18.29,14.26,0,110.8,13.22,18.14,154.6
"2009-04-16 00:36:30",803921,10.82,188.8,1.362,0.24,15.75,107.0441,17.31,18.29,14.3,0,110.8,13.22,18.12,150.8
"2009-04-16 00:37:00",803922,10.71,184.7,2.08,0.513,15.7,107.0295,17.27,18.27,14.37,0,110.8,13.22,18.08,146.7
"2009-04-16 00:37:30",803923,9.81,183.6,3.229,0.509,15.71,107.0199,17.25,18.26,14.41,0,110.8,13.22,18.06,145.6
"2009-04-16 00:38:00",803924,9.87,181.1,2.366,0.162,15.69,107.0196,17.25,18.24,14.45,0,110.8,13.22,18.06,143.1
"2009-04-16 00:38:30",803925,10.49,179.2,3.249,0.465,15.73,107.0025,17.2,18.23,14.48,0,110.8,13.22,18.01,141.2
"2009-04-16 00:39:00",803926,10.4,184,2.568,0.538,15.71,106.9862,17.16,18.21,14.48,0,110.8,13.22,17.97,146.0
"2009-04-16 00:39:30",803927,11.02,183.6,2.066,0.511,15.78,106.9856,17.16,18.21,14.58,0,110.8,13.22,17.97,145.6
"2009-04-16 00:40:00",803928,10.58,187.8,4.954,0.563,15.72,106.9729,17.13,18.17,14.73,0,110.8,13.22,17.94,149.8
"2009-04-16 00:40:30",803929,10.08,191.8,4.628,0.316,15.7,106.9575,17.09,18.16,14.93,0,110.8,13.22,17.90,153.8
"2009-04-16 00:41:00",803930,9.1,189.5,1.547,0.484,15.72,106.9524,17.07,18.14,15.05,0,110.8,13.22,17.88,151.5
"2009-04-16 00:41:30",803931,9.22,188.8,4.209,0.326,15.72,106.9524,17.07,18.13,15.05,0,110.7,13.22,17.88,150.8
"2009-04-16 00:42:00",803932,8.74,190.7,2.355,0.274,15.73,106.9524,17.07,18.11,15.07,0,110.7,13.22,17.88,152.7
"2009-04-16 00:42:30",803933,8.28,194.4,3.462,0.709,15.57,106.9468,17.06,18.08,15.07,0,110.7,13.22,17.87,156.4
"2009-04-16 00:43:00",803934,9.42,194.2,4.783,0.359,15.62,106.9347,17.03,18.08,14.99,0,110.7,13.23,17.84,156.2
"2009-04-16 00:43:30",803935,9.97,193.2,3.665,0.526,15.68,106.9209,16.99,18.07,15.01,0,110.7,13.23,17.80,155.2
"2009-04-16 00:44:00",803936,9.52,196.1,7.968,1.05,15.7,106.9199,16.99,18.06,14.74,0,110.7,13.23,17.80,158.1
"2009-04-16 00:44:30",803937,7.852,203.2,9.1,0.76,15.72,106.9214,16.99,18.05,13.39,0,110.7,13.24,17.81,165.2
"2009-04-16 00:45:00",803938,10.05,202.7,15.53,0.787,15.78,106.9247,17,18.03,13.42,0,110.7,13.24,17.81,164.7
"2009-04-16 00:45:30",803939,10,212,3.11,0.429,15.81,106.923,17,18,11.66,0,110.7,13.24,17.81,174.0
"2009-04-16 00:46:00",803940,11.26,218,5.413,0.657,15.86,106.9206,16.99,18.01,11.79,0,110.7,13.24,17.80,180.0
"2009-04-16 00:46:30",803941,9.5,220.1,4.339,0.988,15.88,106.923,17,18,11.84,0,110.7,13.24,17.81,182.1
"2009-04-16 00:47:00",803942,9.5,223.9,2.546,0.409,15.85,106.9257,17,18,11.79,0,110.7,13.24,17.82,185.9
"2009-04-16 00:47:30",803943,9.72,227.4,3.374,0.95,15.9,106.9332,17.02,17.99,12.18,0,110.7,13.24,17.84,189.4
"2009-04-16 00:48:00",803944,10.82,221.7,5.976,0.556,15.95,106.9389,17.04,17.98,11.42,0,110.7,13.24,17.85,183.7
"2009-04-16 00:48:30",803945,10.42,228.1,2.992,0.555,16.06,106.9453,17.05,18,11.54,0,110.7,13.24,17.87,190.1
"2009-04-16 00:49:00",803946,10.32,219.2,3.02,0.388,15.98,106.9483,17.06,17.99,11.32,0,110.7,13.24,17.87,181.2
"2009-04-16 00:49:30",803947,8.95,212.1,4.827,0.39,16,106.9528,17.07,17.99,11.35,0,110.7,13.24,17.89,174.1
"2009-04-16 00:50:00",803948,9.02,214.2,4.532,0.422,16.02,106.9542,17.08,17.99,11.47,0,110.7,13.24,17.89,176.2
"2009-04-16 00:50:30",803949,8.33,217.6,3.178,0.366,15.97,106.9542,17.08,17.99,11.25,0,110.7,13.24,17.89,179.6
"2009-04-16 00:51:00",803950,7.061,209.7,4.45,0.502,16.02,106.9545,17.08,17.99,11.33,0,110.7,13.24,17.89,171.7
"2009-04-16 00:51:30",803951,6.303,205.5,4.652,0.508,16.01,106.9508,17.07,17.99,11.41,0,110.7,13.24,17.88,167.5
"2009-04-16 00:52:00",803952,8.38,212.4,5.859,0.397,16.01,106.9486,17.06,17.99,11.53,0,110.7,13.24,17.88,174.4
"2009-04-16 00:52:30",803953,7.96,207.7,4.307,0.425,15.95,106.9474,17.06,17.99,11.58,0,110.7,13.24,17.87,169.7
"2009-04-16 00:53:00",803954,7.678,218.3,6.853,0.404,15.98,106.9463,17.06,17.99,11.48,0,110.7,13.24,17.87,180.3
"2009-04-16 00:53:30",803955,7.058,201.8,7.874,0.734,15.83,106.9373,17.03,18,11.64,0,110.7,13.24,17.85,163.8
"2009-04-16 00:54:00",803956,6.615,211.3,7.139,0.727,15.8,106.9227,17,17.97,12.29,0,110.7,13.24,17.81,173.3
"2009-04-16 00:54:30",803957,6.246,210.4,3.903,0.522,15.7,106.921,16.99,17.96,12.53,0,110.7,13.24,17.80,172.4
"2009-04-16 00:55:00",803958,6.284,218.5,3.129,0.394,15.73,106.921,16.99,17.97,12.44,0,110.7,13.24,17.80,180.5
"2009-04-16 00:55:30",803959,7.279,214.1,5.514,0.689,15.86,106.9179,16.98,17.93,11.93,0,110.7,13.24,17.80,176.1
"2009-04-16 00:56:00",803960,7.295,204.5,7.642,0.527,15.8,106.9002,16.94,17.92,12.38,0,110.7,13.24,17.75,166.5
"2009-04-16 00:56:30",803961,7.445,205.4,4.156,0.33,15.83,106.8881,16.91,17.9,13.01,0,110.7,13.24,17.72,167.4
"2009-04-16 00:57:00",803962,8.69,212.5,3.481,0.896,15.97,106.8872,16.91,17.89,12.71,0,110.7,13.24,17.72,174.5
"2009-04-16 00:57:30",803963,9.09,212,5.93,0.354,16.04,106.8872,16.91,17.88,11.57,0,110.7,13.24,17.72,174.0
"2009-04-16 00:58:00",803964,8.74,207.8,2.651,0.257,15.98,106.8872,16.91,17.89,11.6,0,110.6,13.24,17.72,169.8
"2009-04-16 00:58:30",803965,8.79,212.7,2.216,0.494,15.91,106.8872,16.91,17.89,11.51,0,110.6,13.24,17.72,174.7
"2009-04-16 00:59:00",803966,8.57,203.6,3.491,0.447,15.86,106.8875,16.91,17.89,11.79,0,110.6,13.24,17.72,165.6
"2009-04-16 00:59:30",803967,7.884,204.8,3.506,0.724,15.81,106.8875,16.91,17.89,12.57,0,110.6,13.24,17.72,166.8
"2009-04-16 01:00:00",803968,9.03,203.6,3.168,0.488,15.76,106.8887,16.91,17.89,13.23,0,110.6,13.25,17.72,165.6
"2009-04-16 01:00:30",803969,8.8,207.5,4.585,0.626,15.8,106.8908,16.92,17.9,13.38,0,110.6,13.25,17.73,169.5
"2009-04-16 01:01:00",803970,8.15,209.9,4.395,0.536,15.76,106.8927,16.92,17.9,12.99,0,110.6,13.25,17.73,171.9
"2009-04-16 01:01:30",803971,8.49,210.7,3.201,0.767,15.88,106.899,16.94,17.9,12.09,0,110.6,13.25,17.75,172.7
"2009-04-16 01:02:00",803972,11.38,210.2,1.802,0.421,16.12,106.8949,16.93,17.9,11.54,0,110.6,13.25,17.74,172.2
"2009-04-16 01:02:30",803973,10.94,214.8,3.652,0.362,16.07,106.8884,16.91,17.89,11.2,0,110.6,13.25,17.72,176.8
"2009-04-16 01:03:00",803974,10.71,220.2,3.198,0.227,16.13,106.8879,16.91,17.9,10.94,0,110.6,13.25,17.72,182.2
"2009-04-16 01:03:30",803975,10.18,213.1,3.673,0.451,16.05,106.8864,16.9,17.89,11.01,0,110.6,13.25,17.72,175.1
"2009-04-16 01:04:00",803976,9.36,209.8,4.695,0.346,16.04,106.8866,16.9,17.89,11.23,0,110.6,13.25,17.72,171.8
"2009-04-16 01:04:30",803977,9.16,201.6,3.627,0.449,15.95,106.8836,16.9,17.9,11.65,0,110.6,13.25,17.71,163.6
"2009-04-16 01:05:00",803978,10.37,200.2,4.221,0.771,15.84,106.8863,16.9,17.89,13.72,0,110.6,13.25,17.71,162.2
"2009-04-16 01:05:30",803979,10.19,205,5.66,0.592,15.83,106.8883,16.91,17.88,14.06,0,110.6,13.25,17.72,167.0
"2009-04-16 01:06:00",803980,9.17,210.6,5.51,0.578,15.9,106.8893,16.91,17.89,13.35,0,110.6,13.25,17.72,172.6
"2009-04-16 01:06:30",803981,13.15,198.5,4.798,0.53,16.05,106.8896,16.91,17.87,14.53,0,110.6,13.25,17.72,160.5
"2009-04-16 01:07:00",803982,13.22,196.6,2.912,0.504,16.17,106.889,16.91,17.87,15.01,0,110.6,13.25,17.72,158.6
"2009-04-16 01:07:30",803983,12.37,201.5,2.736,0.804,16.18,106.8707,16.86,17.86,14.34,0,110.6,13.25,17.67,163.5
"2009-04-16 01:08:00",803984,12.6,199.3,4.557,0.473,16.16,106.8566,16.83,17.85,14.2,0,110.6,13.25,17.64,161.3
"2009-04-16 01:08:30",803985,12.44,195.3,2.399,0.418,16.12,106.8558,16.83,17.83,15.35,0,110.6,13.26,17.64,157.3
"2009-04-16 01:09:00",803986,12.31,200.3,1.607,0.311,16.11,106.8558,16.83,17.83,15.67,0,110.6,13.26,17.64,162.3
"2009-04-16 01:09:30",803987,12.72,197.1,1.322,0.346,16.23,106.8451,16.8,17.81,15.78,0,110.6,13.26,17.61,159.1
"2009-04-16 01:10:00",803988,12.68,200.5,4.109,0.579,16.09,106.8288,16.76,17.78,15.88,0,110.6,13.26,17.57,162.5
"2009-04-16 01:10:30",803989,11.42,205.1,4.56,0.68,16.03,106.822,16.74,17.76,15.92,0,110.6,13.26,17.55,167.1
"2009-04-16 01:11:00",803990,11.73,209.3,5.141,0.464,15.97,106.8144,16.72,17.76,14.97,0,110.6,13.26,17.53,171.3
"2009-04-16 01:11:30",803991,10.45,208.3,4.945,0.699,16.02,106.7896,16.66,17.73,15.32,0,110.6,13.25,17.47,170.3
"2009-04-16 01:12:00",803992,10.85,209.3,3.369,0.56,15.92,106.7882,16.65,17.7,14.54,0,110.6,13.25,17.46,171.3
"2009-04-16 01:12:30",803993,10.44,211.6,3.448,0.458,15.87,106.786,16.65,17.68,15.28,0,110.6,13.25,17.46,173.6
"2009-04-16 01:13:00",803994,11.51,208.8,4.188,0.547,16.03,106.7573,16.57,17.65,14.78,0,110.6,13.25,17.38,170.8
"2009-04-16 01:13:30",803995,11.13,210.4,3.256,0.436,15.88,106.7545,16.57,17.64,14.06,0,110.6,13.26,17.38,172.4
"2009-04-16 01:14:00",803996,10.54,205.2,3.368,0.576,15.76,106.7351,16.52,17.6,15.94,0,110.6,13.26,17.33,167.2
"2009-04-16 01:14:30",803997,9.95,200.5,4.637,0.728,15.74,106.7121,16.46,17.55,16.29,0,110.6,13.26,17.27,162.5
"2009-04-16 01:15:00",803998,8.77,210.6,10.45,1.667,15.18,106.6914,16.4,17.52,16.04,0,110.6,13.26,17.21,172.6
"2009-04-16 01:15:30",803999,8.13,211.9,10.62,1.259,14.99,106.6539,16.31,17.45,17.59,0,110.6,13.26,17.12,173.9
"2009-04-16 01:16:00",804000,7.252,206.1,6.581,1.219,15.43,106.6259,16.24,17.37,17.96,0,110.6,13.26,17.05,168.1
"2009-04-16 01:16:30",804001,4.456,218.5,11.77,0.917,14.78,106.5985,16.17,17.3,18,0,110.6,13.26,16.97,180.5
"2009-04-16 01:17:00",804002,5.803,234.1,5.387,1.513,14.57,106.5726,16.1,17.25,19.85,0,110.6,13.27,16.91,196.1
"2009-04-16 01:17:30",804003,6.782,226.3,16.82,1.017,15.57,106.5561,16.06,17.17,19.47,0,110.6,13.27,16.87,188.3
"2009-04-16 01:18:00",804004,3.672,238.9,22.77,0.788,15.54,106.5451,16.03,17.14,17.31,0,110.6,13.27,16.84,200.9
"2009-04-16 01:18:30",804005,6.557,217.7,6.166,1.144,15.01,106.5492,16.04,17.1,18.2,0,110.6,13.27,16.85,179.7
"2009-04-16 01:19:00",804006,3.493,209.6,12.41,1.063,14.81,106.5298,15.99,17.06,19.77,0,110.6,13.27,16.80,171.6
"2009-04-16 01:19:30",804007,2.221,216.4,18.14,0.525,14.9,106.494,15.9,17.02,20.56,0,110.6,13.27,16.71,178.4
"2009-04-16 01:20:00",804008,2.029,344.7,57.64,0.892,15.03,106.4561,15.8,16.95,20.3,0,110.6,13.27,16.61,306.7
"2009-04-16 01:20:30",804009,1.163,105.3,47.24,0.491,15.07,106.4496,15.78,16.89,20.16,0,110.6,13.27,16.59,67.3
"2009-04-16 01:21:00",804010,1.446,107,44.58,0.813,15.15,106.4189,15.71,16.84,19.88,0,110.6,13.27,16.51,69.0
"2009-04-16 01:21:30",804011,1.879,56.92,17.68,1.055,15.24,106.3947,15.64,16.78,19.71,0,110.6,13.27,16.45,18.9
"2009-04-16 01:22:00",804012,0.866,19.71,36.53,0.715,15.2,106.3848,15.62,16.73,19.6,0,110.6,13.27,16.43,341.7
"2009-04-16 01:22:30",804013,2.042,334.3,21.24,0.463,15.21,106.3747,15.59,16.68,19.75,0,110.6,13.27,16.40,296.3
"2009-04-16 01:23:00",804014,1.321,290.9,51.88,0.689,15.24,106.3536,15.54,16.65,19.63,0,110.6,13.27,16.34,252.9
"2009-04-16 01:23:30",804015,1.617,274.5,16.04,0.277,15.28,106.3513,15.53,16.62,19.43,0,110.5,13.28,16.34,236.5
"2009-04-16 01:24:00",804016,1.713,248,31.46,0.723,15.46,106.3502,15.53,16.59,18.64,0,110.5,13.28,16.34,210.0
"2009-04-16 01:24:30",804017,2.071,291.8,23.1,0.606,15.32,106.3316,15.48,16.59,18.65,0,110.5,13.28,16.29,253.8
"2009-04-16 01:25:00",804018,3.378,294.3,18.77,1.021,15.5,106.3176,15.45,16.55,19.03,0,110.5,13.28,16.25,256.3
"2009-04-16 01:25:30",804019,6.125,324.4,9.87,0.699,15.88,106.3145,15.44,16.5,17.03,0,110.5,13.28,16.24,286.4
"2009-04-16 01:26:00",804020,4.252,316.1,25.77,0.625,15.59,106.3052,15.41,16.49,16.48,0,110.5,13.28,16.22,278.1
"2009-04-16 01:26:30",804021,3.685,294.6,22.51,0.717,15.58,106.2841,15.36,16.46,17.66,0,110.5,13.28,16.17,256.6
"2009-04-16 01:27:00",804022,1.941,324.2,20.61,0.832,15.69,106.2838,15.36,16.44,16.95,0,110.5,13.28,16.17,286.2
"2009-04-16 01:27:30",804023,0.422,352.7,76.15,0.357,15.59,106.2838,15.36,16.43,16.61,0,110.5,13.28,16.17,314.7
"2009-04-16 01:28:00",804024,1.011,38.8,25.48,0.703,15.23,106.2838,15.36,16.39,17.72,0,110.5,13.28,16.17,0.8
"2009-04-16 01:28:30",804025,1.581,0.883,32.11,0.685,15.15,106.2729,15.33,16.4,20.14,0,110.5,13.28,16.14,322.9
"2009-04-16 01:29:00",804026,0.753,17.8,22.39,0.344,15.01,106.2515,15.28,16.37,21.35,0,110.5,13.28,16.08,339.8
"2009-04-16 01:29:30",804027,0.344,296,72.52,0.332,14.97,106.2323,15.23,16.36,22.65,0,110.5,13.27,16.03,258.0
"2009-04-16 01:30:00",804028,0.553,217.9,45.59,0.214,15.12,106.2135,15.18,16.3,21.91,0,110.5,13.27,15.98,179.9
"2009-04-16 01:30:30",804029,1.57,340.3,22.31,0.681,15.22,106.1914,15.12,16.26,22.05,0,110.5,13.28,15.93,302.3
"2009-04-16 01:31:00",804030,2.998,250.4,35.14,1.029,15.62,106.1938,15.13,16.22,21.08,0,110.5,13.28,15.93,212.4
"2009-04-16 01:31:30",804031,3.976,251.2,17.97,0.825,15.59,106.2028,15.15,16.19,19.56,0,110.5,13.28,15.96,213.2
"2009-04-16 01:32:00",804032,2.561,269.6,16.46,0.618,15.56,106.1992,15.14,16.17,19.62,0,110.5,13.28,15.95,231.6
"2009-04-16 01:32:30",804033,2.306,289.3,17.57,0.517,15.26,106.1831,15.1,16.14,20.4,0,110.5,13.28,15.91,251.3
"2009-04-16 01:33:00",804034,2.113,282,31.2,0.57,15.42,106.1842,15.1,16.13,21.21,0,110.5,13.28,15.91,244.0
"2009-04-16 01:33:30",804035,3.793,236.8,8.02,1.093,16.31,106.1842,15.1,16.11,17.87,0,110.5,13.28,15.91,198.8
"2009-04-16 01:34:00",804036,4.989,243,6.569,0.296,16.18,106.1842,15.1,16.1,16.08,0,110.5,13.28,15.91,205.0
"2009-04-16 01:34:30",804037,5.248,262.3,5.583,0.648,15.27,106.1817,15.1,16.09,17.73,0,110.5,13.29,15.90,224.3
"2009-04-16 01:35:00",804038,5.962,271,8.03,0.491,15.05,106.162,15.05,16.09,20.84,0,110.5,13.29,15.85,233.0
"2009-04-16 01:35:30",804039,5.01,264.1,10.06,0.634,15.6,106.1507,15.02,16.07,20.58,0,110.5,13.29,15.82,226.1
"2009-04-16 01:36:00",804040,4.794,248,8.85,0.6,15.73,106.1507,15.02,16.04,17.94,0,110.5,13.29,15.82,210.0
"2009-04-16 01:36:30",804041,2.61,237.2,12.99,0.912,15.43,106.1507,15.02,16.05,18.35,0,110.5,13.29,15.82,199.2
"2009-04-16 01:37:00",804042,3.944,277,10.71,0.878,15.02,106.1459,15.01,16.04,19.98,0,110.5,13.29,15.81,239.0
"2009-04-16 01:37:30",804043,4.47,302.8,24.62,0.778,14.8,106.124,14.95,16.03,22.8,0,110.5,13.3,15.75,264.8
"2009-04-16 01:38:00",804044,3.77,350.6,7.374,1.239,15.45,106.1085,14.91,15.97,23.67,0,110.5,13.26,15.71,312.6
"2009-04-16 01:38:30",804045,6.023,357.8,7.424,1.915,17.74,106.0845,14.85,16.14,24.57,0,110.5,13.26,15.65,319.8
"2009-04-16 01:39:00",804046,5.228,29.15,15.73,1.42,19.42,106.0831,14.85,16.3,24.27,0,110.5,13.26,15.65,351.1
"2009-04-16 01:39:30",804047,5.002,33.11,7.632,1.584,17.3,106.0651,14.8,16.11,23.76,0,110.5,13.26,15.60,355.1
"2009-04-16 01:40:00",804048,3.907,18.31,9.82,1.15,12.96,106.0496,14.76,15.87,25.21,0,110.5,13.26,15.56,340.3
"2009-04-16 01:40:30",804049,1.682,6.527,45.88,0.757,12.49,106.0493,14.76,15.86,24.28,0,110.5,13.29,15.56,328.5
"2009-04-16 01:41:00",804050,1.774,331.2,22.66,0.7,12.63,106.042,14.74,15.83,22.56,0,110.5,13.29,15.54,293.2
"2009-04-16 01:41:30",804051,1.274,306.7,36.61,0.481,12.87,106.023,14.69,15.8,21.63,0,110.5,13.29,15.50,268.7
"2009-04-16 01:42:00",804052,2.849,336.5,18.48,0.559,13.21,106.0224,14.69,15.78,21.06,0,110.5,13.3,15.49,298.5
"2009-04-16 01:42:30",804053,2.647,326.2,13.54,0.372,13.38,106.0214,14.69,15.74,21.75,0,110.5,13.3,15.49,288.2
"2009-04-16 01:43:00",804054,3.213,313.9,15.77,0.516,13.43,106.0062,14.65,15.73,22.68,0,110.4,13.3,15.45,275.9
"2009-04-16 01:43:30",804055,4.042,306.5,7.542,0.422,13.5,105.9979,14.63,15.69,23.86,0,110.4,13.3,15.43,268.5
"2009-04-16 01:44:00",804056,3.688,312.6,14.89,0.583,13.34,105.9622,14.54,15.63,26.92,0,110.5,13.3,15.34,274.6
"2009-04-16 01:44:30",804057,1.388,329.6,18.38,0.812,13.64,105.9065,14.39,15.52,27.75,0,110.5,13.3,15.20,291.6
"2009-04-16 01:45:00",804058,1.031,266.9,23.48,0.695,14.17,105.8746,14.31,15.47,27.38,0,110.4,13.3,15.11,228.9
"2009-04-16 01:45:30",804059,3.422,265.1,9.38,1.263,16.59,105.8516,14.25,15.52,25.76,0,110.4,13.26,15.05,227.1
"2009-04-16 01:46:00",804060,2.919,284.5,16.61,1.111,15.93,105.8477,14.24,15.63,26.73,0,110.4,13.26,15.04,246.5
"2009-04-16 01:46:30",804061,2.765,327,17.53,1.412,16.36,105.8229,14.18,15.38,28.21,0,110.4,13.26,14.98,289.0
"2009-04-16 01:47:00",804062,2.594,2.706,23.55,1.443,16.7,105.7964,14.11,15.41,28.66,0,110.4,13.26,14.91,324.7
"2009-04-16 01:47:30",804063,2.838,26.76,14.13,1.671,14.7,105.7809,14.07,15.38,29.14,0,110.4,13.26,14.87,348.8
"2009-04-16 01:48:00",804064,1.905,4.669,19.06,0.62,11.25,105.7804,14.07,15.15,31,0,110.4,13.26,14.87,326.7
"2009-04-16 01:48:30",804065,1.356,3.544,10.71,0.406,10.87,105.7683,14.04,15.13,31.74,0,110.4,13.3,14.84,325.5